Location: Ch�risy
(50.2331°N, 2.9131°E)
Time: 02:22:22
(UTC+00:00)

Helios 1A Rocket - Pass Details

Date: 17 January 2021
Orbit: 562 x 587 km, 98.3° (Epoch: 28 February)

Event Time Altitude Azimuth Distance (km) Brightness Sun altitude
Rises 18:25:52 0° 163° (SSE) 2,796 6.3 -20.0°
Reaches altitude 10° 18:28:00 10° 162° (SSE) 1,903 5.5 -20.3°
Maximum altitude 18:32:08 87° 74° (ENE) 595 2.8 -20.9°
Drops below altitude 10° 18:36:19 10° 346° (NNW) 1,924 5.7 -21.6°
Sets 18:38:30 0° 346° (NNW) 2,830 6.5 -22.0°
